owner,sensor,date,latitude,longitude,vertical_datum,wind_speed,wind_to_direction,wind_speed_of_gust,qcFlag 
TABS,ioos:station:wmo:42047:1,2010-11-01T00:00:00Z,27.8966,-93.5973,4.0,5.511850869,161.5981766,6.17,'11111222,11111222,11111222' 
TABS,ioos:station:wmo:42047:1,2010-11-01T00:30:00Z,27.8966,-93.5973,4.0,5.126216929,161.1058184,6.14,'11111222,11111222,11111222' 
TABS,ioos:station:wmo:42047:1,2010-11-01T01:00:00Z,27.8966,-93.5973,4.0,5.68594759,161.1191853,6.41,'11111222,11111222,11111222' 
TABS,ioos:station:wmo:42047:1,2010-11-01T01:30:00Z,27.8966,-93.5973,4.0,5.928110998,166.7375847,6.89,'11111222,11111222,11111222' 
TABS,ioos:station:wmo:42047:1,2010-11-01T02:00:00Z,27.8966,-93.5973,4.0,5.040079364,166.4602923,5.81,'11111222,11111222,11111222' 
TABS,ioos:station:wmo:42047:1,2010-11-01T02:30:00Z,27.8966,-93.5973,4.0,5.680184856,165.9395354,6.33,'11111222,11111222,11111222' 
TABS,ioos:station:wmo:42047:1,2010-11-01T03:00:00Z,27.8966,-93.5973,4.0,7.062046446,178.6208368,7.89,'11111222,11111222,11111222' 
TABS,ioos:station:wmo:42047:1,2010-11-01T03:30:00Z,27.8966,-93.5973,4.0,7.474790967,176.395196,8.01,'11111222,11111222,11111222' 
TABS,ioos:station:wmo:42047:1,2010-11-01T04:00:00Z,27.8966,-93.5973,4.0,7.536418247,174.3652784,8.44,'11111222,11111222,11111222' 
TABS,ioos:station:wmo:42047:1,2010-11-01T04:30:00Z,27.8966,-93.5973,4.0,7.447314952,170.7276304,8.45,'11111222,11111222,11111222' 
TABS,ioos:station:wmo:42047:1,2010-11-01T05:00:00Z,27.8966,-93.5973,4.0,7.888852895,169.6304271,8.88,'11111222,11111222,11111222' 
TABS,ioos:station:wmo:42047:1,2010-11-01T05:30:00Z,27.8966,-93.5973,4.0,7.517293396,175.1163175,8.84,'11111222,11111222,11111222' 
TABS,ioos:station:wmo:42047:1,2010-11-01T06:00:00Z,27.8966,-93.5973,4.0,8.174796634,178.0373581,9.16,'11111222,11111222,11111222' 
TABS,ioos:station:wmo:42047:1,2010-11-01T06:30:00Z,27.8966,-93.5973,4.0,8.650693614,177.1510419,10.32,'11111222,11111222,11111222' 
TABS,ioos:station:wmo:42047:1,2010-11-01T07:00:00Z,27.8966,-93.5973,4.0,8.45132534,173.6824936,9.27,'11111222,11111222,11111222' 
TABS,ioos:station:wmo:42047:1,2010-11-01T07:30:00Z,27.8966,-93.5973,4.0,9.117938363,170.0213751,10.14,'11111222,11111222,11111222' 
TABS,ioos:station:wmo:42047:1,2010-11-01T08:00:00Z,27.8966,-93.5973,4.0,9.108968108,171.9857679,10.22,'11111222,11111222,11111222' 
TABS,ioos:station:wmo:42047:1,2010-11-01T08:30:00Z,27.8966,-93.5973,4.0,8.763401166,175.8121233,10.21,'11111222,11111222,11111222' 
TABS,ioos:station:wmo:42047:1,2010-11-01T09:00:00Z,27.8966,-93.5973,4.0,8.300849354,171.0599002,9.5,'11111222,11111222,11111222' 
TABS,ioos:station:wmo:42047:1,2010-11-01T09:30:00Z,27.8966,-93.5973,4.0,8.59027357,177.1977655,10.15,'11111222,11111222,11111222' 
TABS,ioos:station:wmo:42047:1,2010-11-01T10:00:00Z,27.8966,-93.5973,4.0,8.277976806,184.7121094,9.2,'11111222,11111222,11111222' 
TABS,ioos:station:wmo:42047:1,2010-11-01T10:30:00Z,27.8966,-93.5973,4.0,7.991407886,178.9246989,9.43,'11111222,11111222,11111222' 
TABS,ioos:station:wmo:42047:1,2010-11-01T11:00:00Z,27.8966,-93.5973,4.0,8.320606949,177.1068636,9.45,'11111222,11111222,11111222' 
TABS,ioos:station:wmo:42047:1,2010-11-01T11:30:00Z,27.8966,-93.5973,4.0,8.043581292,178.2904004,9.21,'11111222,11111222,11111222' 
TABS,ioos:station:wmo:42047:1,2010-11-01T12:00:00Z,27.8966,-93.5973,4.0,8.288142132,173.2096174,9.49,'11111222,11111222,11111222' 
TABS,ioos:station:wmo:42047:1,2010-11-01T12:30:00Z,27.8966,-93.5973,4.0,8.256318792,172.2038082,9.28,'11111222,11111222,11111222' 
TABS,ioos:station:wmo:42047:1,2010-11-01T13:00:00Z,27.8966,-93.5973,4.0,7.911289402,175.7959255,9.05,'11111222,11111222,11111222' 
TABS,ioos:station:wmo:42047:1,2010-11-01T13:30:00Z,27.8966,-93.5973,4.0,7.569266807,174.1615875,8.42,'11111222,11111222,11111222' 
TABS,ioos:station:wmo:42047:1,2010-11-01T14:00:00Z,27.8966,-93.5973,4.0,6.56829506,177.1203876,7.84,'11111222,11111222,11111222' 
TABS,ioos:station:wmo:42047:1,2010-11-01T14:30:00Z,27.8966,-93.5973,4.0,6.280740402,175.3426407,7.36,'11111222,11111222,11111222' 
TABS,ioos:station:wmo:42047:1,2010-11-01T15:00:00Z,27.8966,-93.5973,4.0,6.483347901,172.645021,7.46,'11111222,11111222,11111222' 
TABS,ioos:station:wmo:42047:1,2010-11-01T15:30:00Z,27.8966,-93.5973,4.0,6.722685475,172.822355,7.61,'11111222,11111222,11111222' 
TABS,ioos:station:wmo:42047:1,2010-11-01T16:00:00Z,27.8966,-93.5973,4.0,6.447976427,174.6609861,7.43,'11111222,11111222,11111222' 
TABS,ioos:station:wmo:42047:1,2010-11-01T16:30:00Z,27.8966,-93.5973,4.0,6.727733645,173.1709821,7.75,'11111222,11111222,11111222' 
TABS,ioos:station:wmo:42047:1,2010-11-01T17:00:00Z,27.8966,-93.5973,4.0,6.786928613,169.8162011,7.65,'11111222,11111222,11111222' 
TABS,ioos:station:wmo:42047:1,2010-11-01T17:30:00Z,27.8966,-93.5973,4.0,6.773219323,174.3232993,7.86,'11111222,11111222,11111222' 
TABS,ioos:station:wmo:42047:1,2010-11-01T18:00:00Z,27.8966,-93.5973,4.0,7.389736125,170.57615,8.28,'11111222,11111222,11111222' 
TABS,ioos:station:wmo:42047:1,2010-11-01T18:30:00Z,27.8966,-93.5973,4.0,6.678922069,173.811609,7.84,'11111222,11111222,11111222' 
TABS,ioos:station:wmo:42047:1,2010-11-01T19:00:00Z,27.8966,-93.5973,4.0,7.365195177,172.9813494,8.38,'11111222,11111222,11111222' 
TABS,ioos:station:wmo:42047:1,2010-11-01T19:30:00Z,27.8966,-93.5973,4.0,7.069285678,170.8843449,8.07,'11111222,11111222,11111222' 
TABS,ioos:station:wmo:42047:1,2010-11-01T20:00:00Z,27.8966,-93.5973,4.0,7.074475246,171.1370761,7.71,'11111222,11111222,11111222' 
TABS,ioos:station:wmo:42047:1,2010-11-01T20:30:00Z,27.8966,-93.5973,4.0,6.681175046,170.523812,7.58,'11111222,11111222,11111222' 
TABS,ioos:station:wmo:42047:1,2010-11-01T21:00:00Z,27.8966,-93.5973,4.0,7.368174808,172.2000408,8.08,'11111222,11111222,11111222' 
TABS,ioos:station:wmo:42047:1,2010-11-01T21:30:00Z,27.8966,-93.5973,4.0,7.074920494,169.6591709,7.9,'11111222,11111222,11111222' 
TABS,ioos:station:wmo:42047:1,2010-11-01T22:00:00Z,27.8966,-93.5973,4.0,6.769830131,166.7645676,7.68,'11111222,11111222,11111222' 
TABS,ioos:station:wmo:42047:1,2010-11-01T22:30:00Z,27.8966,-93.5973,4.0,7.154949336,165.5949821,7.99,'11111222,11111222,11111222' 
TABS,ioos:station:wmo:42047:1,2010-11-01T23:00:00Z,27.8966,-93.5973,4.0,6.709135563,170.6502271,7.39,'11111222,11111222,11111222' 
TABS,ioos:station:wmo:42047:1,2010-11-01T23:30:00Z,27.8966,-93.5973,4.0,6.591092474,164.7832483,7.44,'11111222,11111222,11111222' 
TABS,ioos:station:wmo:42047:1,2010-11-02T00:00:00Z,27.8966,-93.5973,4.0,6.381927608,160.8839219,7.31,'11111222,11111222,11111222' 
TABS,ioos:station:wmo:42047:1,2010-11-02T00:30:00Z,27.8966,-93.5973,4.0,6.601492256,162.9102836,7.24,'11111222,11111222,11111222' 
TABS,ioos:station:wmo:42047:1,2010-11-02T01:00:00Z,27.8966,-93.5973,4.0,6.97298358,161.1755445,8.05,'11111222,11111222,11111222' 
TABS,ioos:station:wmo:42047:1,2010-11-02T01:30:00Z,27.8966,-93.5973,4.0,6.945530937,158.9035222,7.94,'11111222,11111222,11111222' 
TABS,ioos:station:wmo:42047:1,2010-11-02T02:00:00Z,27.8966,-93.5973,4.0,7.292256167,158.1842618,8.64,'11111222,11111222,11111222' 
TABS,ioos:station:wmo:42047:1,2010-11-02T02:30:00Z,27.8966,-93.5973,4.0,7.336756777,162.0592205,8.18,'11111222,11111222,11111222' 
TABS,ioos:station:wmo:42047:1,2010-11-02T03:00:00Z,27.8966,-93.5973,4.0,7.529475413,159.8806244,8.55,'11111222,11111222,11111222' 
TABS,ioos:station:wmo:42047:1,2010-11-02T03:30:00Z,27.8966,-93.5973,4.0,7.429777924,159.5164195,8.59,'11111222,11111222,11111222' 
TABS,ioos:station:wmo:42047:1,2010-11-02T04:00:00Z,27.8966,-93.5973,4.0,7.153635439,159.7160656,8.08,'11111222,11111222,11111222' 
TABS,ioos:station:wmo:42047:1,2010-11-02T04:30:00Z,27.8966,-93.5973,4.0,7.422890273,162.5172965,8.3,'11111222,11111222,11111222' 
TABS,ioos:station:wmo:42047:1,2010-11-02T05:00:00Z,27.8966,-93.5973,4.0,7.7874065,164.6612393,8.83,'11111222,11111222,11111222' 
TABS,ioos:station:wmo:42047:1,2010-11-02T05:30:00Z,27.8966,-93.5973,4.0,8.091044432,162.8194266,8.89,'11111222,11111222,11111222' 
TABS,ioos:station:wmo:42047:1,2010-11-02T06:00:00Z,27.8966,-93.5973,4.0,7.973386984,164.9531076,9.35,'11111222,11111222,11111222' 
TABS,ioos:station:wmo:42047:1,2010-11-02T06:30:00Z,27.8966,-93.5973,4.0,8.739485111,168.047427,10.0,'11111222,11111222,11111222' 
TABS,ioos:station:wmo:42047:1,2010-11-02T07:00:00Z,27.8966,-93.5973,4.0,10.01584744,169.8795849,11.29,'11111222,11111222,11111222' 
TABS,ioos:station:wmo:42047:1,2010-11-02T07:30:00Z,27.8966,-93.5973,4.0,10.05912521,176.4665204,11.74,'11111222,11111222,11111222' 
TABS,ioos:station:wmo:42047:1,2010-11-02T08:00:00Z,27.8966,-93.5973,4.0,11.30276515,178.7328144,12.45,'11111222,11111222,11111222' 
TABS,ioos:station:wmo:42047:1,2010-11-02T08:30:00Z,27.8966,-93.5973,4.0,9.934148177,183.0584612,10.79,'11111222,11111222,11111222' 
TABS,ioos:station:wmo:42047:1,2010-11-02T09:00:00Z,27.8966,-93.5973,4.0,9.318165055,182.3989478,10.44,'11111222,11111222,11111222' 
TABS,ioos:station:wmo:42047:1,2010-11-02T09:30:00Z,27.8966,-93.5973,4.0,8.392615802,176.8582567,9.48,'11111222,11111222,11111222' 
TABS,ioos:station:wmo:42047:1,2010-11-02T10:00:00Z,27.8966,-93.5973,4.0,8.630370792,179.4690957,9.88,'11111222,11111222,11111222' 
TABS,ioos:station:wmo:42047:1,2010-11-02T10:30:00Z,27.8966,-93.5973,4.0,9.662566947,183.9168294,10.87,'11111222,11111222,11111222' 
TABS,ioos:station:wmo:42047:1,2010-11-02T11:00:00Z,27.8966,-93.5973,4.0,9.867243789,189.5675174,11.62,'11111222,11111222,11111222' 
TABS,ioos:station:wmo:42047:1,2010-11-02T11:30:00Z,27.8966,-93.5973,4.0,9.321652214,196.4521487,10.35,'11111222,11111222,11111222' 
TABS,ioos:station:wmo:42047:1,2010-11-02T12:00:00Z,27.8966,-93.5973,4.0,9.283544582,203.5553204,10.45,'11111222,11111222,11111222' 
TABS,ioos:station:wmo:42047:1,2010-11-02T12:30:00Z,27.8966,-93.5973,4.0,8.75,200.6098552,9.71,'11111222,11111222,11111222' 
TABS,ioos:station:wmo:42047:1,2010-11-02T13:00:00Z,27.8966,-93.5973,4.0,7.884624278,201.815063,9.33,'11111222,11111222,11111222' 
TABS,ioos:station:wmo:42047:1,2010-11-02T13:30:00Z,27.8966,-93.5973,4.0,7.430080753,197.1425857,8.49,'11111222,11111222,11111222' 
TABS,ioos:station:wmo:42047:1,2010-11-02T14:00:00Z,27.8966,-93.5973,4.0,7.520864312,32.40079093,9.88,'11111222,11111222,11111222' 
TABS,ioos:station:wmo:42047:1,2010-11-02T14:30:00Z,27.8966,-93.5973,4.0,10.14191796,347.9918663,12.28,'11111222,11111222,11111222' 
TABS,ioos:station:wmo:42047:1,2010-11-02T15:00:00Z,27.8966,-93.5973,4.0,9.572800008,343.742017,13.64,'11111222,11111222,11111222' 
TABS,ioos:station:wmo:42047:1,2010-11-02T15:30:00Z,27.8966,-93.5973,4.0,5.486392257,14.56790734,6.85,'11111222,11111222,11111222' 
TABS,ioos:station:wmo:42047:1,2010-11-02T16:00:00Z,27.8966,-93.5973,4.0,6.180258894,342.6789883,7.54,'11111222,11111222,11111222' 
TABS,ioos:station:wmo:42047:1,2010-11-02T16:30:00Z,27.8966,-93.5973,4.0,6.807525248,2.694067531,7.7,'11111222,11111222,11111222' 
TABS,ioos:station:wmo:42047:1,2010-11-02T17:00:00Z,27.8966,-93.5973,4.0,9.625487001,66.09758456,11.02,'11111222,11111222,11111222' 
TABS,ioos:station:wmo:42047:1,2010-11-02T17:30:00Z,27.8966,-93.5973,4.0,8.467349054,85.393292,10.65,'11111222,11111222,11111222' 
TABS,ioos:station:wmo:42047:1,2010-11-02T18:00:00Z,27.8966,-93.5973,4.0,3.562948217,75.53434167,5.34,'11111222,11111222,11111222' 
TABS,ioos:station:wmo:42047:1,2010-11-02T18:30:00Z,27.8966,-93.5973,4.0,2.246975745,114.1699768,3.31,'11111222,11111222,11111222' 
TABS,ioos:station:wmo:42047:1,2010-11-02T19:00:00Z,27.8966,-93.5973,4.0,2.54892134,150.1159935,3.82,'11111222,11111222,11111222' 
TABS,ioos:station:wmo:42047:1,2010-11-02T19:30:00Z,27.8966,-93.5973,4.0,2.095375861,175.8951215,2.94,'11111222,11111222,11111222' 
TABS,ioos:station:wmo:42047:1,2010-11-02T20:00:00Z,27.8966,-93.5973,4.0,1.290968629,182.2198608,2.22,'11111222,11111222,11111222' 
TABS,ioos:station:wmo:42047:1,2010-11-02T20:30:00Z,27.8966,-93.5973,4.0,2.632736219,177.3877724,4.43,'11111222,11111222,11111222' 
TABS,ioos:station:wmo:42047:1,2010-11-02T21:00:00Z,27.8966,-93.5973,4.0,2.875691221,185.9883448,3.73,'11111222,11111222,11111222' 
TABS,ioos:station:wmo:42047:1,2010-11-02T21:30:00Z,27.8966,-93.5973,4.0,3.820209418,233.730121,12.72,'11111222,11111222,11111222' 
TABS,ioos:station:wmo:42047:1,2010-11-02T22:00:00Z,27.8966,-93.5973,4.0,9.022959603,314.5508785,10.43,'11111222,11111222,11111222' 
TABS,ioos:station:wmo:42047:1,2010-11-02T22:30:00Z,27.8966,-93.5973,4.0,10.11774678,307.9344952,11.6,'11111222,11111222,11111222' 
TABS,ioos:station:wmo:42047:1,2010-11-02T23:00:00Z,27.8966,-93.5973,4.0,9.802061008,304.2736254,10.97,'11111222,11111222,11111222' 
TABS,ioos:station:wmo:42047:1,2010-11-02T23:30:00Z,27.8966,-93.5973,4.0,8.78615388,306.5307107,9.99,'11111222,11111222,11111222' 
TABS,ioos:station:wmo:42047:1,2010-11-03T00:00:00Z,27.8966,-93.5973,4.0,7.94353196,307.9950911,10.04,'11111222,11111222,11111222' 
TABS,ioos:station:wmo:42047:1,2010-11-03T00:30:00Z,27.8966,-93.5973,4.0,8.454543157,301.9981249,9.74,'11111222,11111222,11111222' 
TABS,ioos:station:wmo:42047:1,2010-11-03T01:00:00Z,27.8966,-93.5973,4.0,8.498517518,293.7296921,9.71,'11111222,11111222,11111222' 
TABS,ioos:station:wmo:42047:1,2010-11-03T01:30:00Z,27.8966,-93.5973,4.0,8.844546342,298.9412789,10.89,'11111222,11111222,11111222' 
TABS,ioos:station:wmo:42047:1,2010-11-03T02:00:00Z,27.8966,-93.5973,4.0,7.924001514,303.9908032,9.23,'11111222,11111222,11111222' 
TABS,ioos:station:wmo:42047:1,2010-11-03T02:30:00Z,27.8966,-93.5973,4.0,7.626067138,306.6293905,9.62,'11111222,11111222,11111222' 
TABS,ioos:station:wmo:42047:1,2010-11-03T03:00:00Z,27.8966,-93.5973,4.0,8.041448874,316.1587515,9.14,'11111222,11111222,11111222' 
TABS,ioos:station:wmo:42047:1,2010-11-03T03:30:00Z,27.8966,-93.5973,4.0,9.108073342,315.622649,10.54,'11111222,11111222,11111222' 
TABS,ioos:station:wmo:42047:1,2010-11-03T04:00:00Z,27.8966,-93.5973,4.0,9.622686735,312.009243,10.69,'11111222,11111222,11111222' 
TABS,ioos:station:wmo:42047:1,2010-11-03T04:30:00Z,27.8966,-93.5973,4.0,9.125398621,299.4021478,11.12,'11111222,11111222,11111222' 
TABS,ioos:station:wmo:42047:1,2010-11-03T05:00:00Z,27.8966,-93.5973,4.0,7.356765594,298.5855303,9.11,'11111222,11111222,11111222' 
TABS,ioos:station:wmo:42047:1,2010-11-03T05:30:00Z,27.8966,-93.5973,4.0,7.600592082,291.5353899,9.07,'11111222,11111222,11111222' 
TABS,ioos:station:wmo:42047:1,2010-11-03T06:00:00Z,27.8966,-93.5973,4.0,6.538386651,296.9176938,8.69,'11111222,11111222,11111222' 
TABS,ioos:station:wmo:42047:1,2010-11-03T06:30:00Z,27.8966,-93.5973,4.0,6.290071542,286.5334348,7.51,'11111222,11111222,11111222' 
TABS,ioos:station:wmo:42047:1,2010-11-03T07:00:00Z,27.8966,-93.5973,4.0,6.269744811,275.5832765,7.64,'11111222,11111222,11111222' 
TABS,ioos:station:wmo:42047:1,2010-11-03T07:30:00Z,27.8966,-93.5973,4.0,7.101380148,271.1296269,8.87,'11111222,11111222,11111222' 
TABS,ioos:station:wmo:42047:1,2010-11-03T08:00:00Z,27.8966,-93.5973,4.0,7.072481884,273.4045103,8.96,'11111222,11111222,11111222' 
TABS,ioos:station:wmo:42047:1,2010-11-03T08:30:00Z,27.8966,-93.5973,4.0,7.285382626,272.202593,8.64,'11111222,11111222,11111222' 
TABS,ioos:station:wmo:42047:1,2010-11-03T09:00:00Z,27.8966,-93.5973,4.0,6.389593101,274.4881012,7.81,'11111222,11111222,11111222' 
TABS,ioos:station:wmo:42047:1,2010-11-03T09:30:00Z,27.8966,-93.5973,4.0,7.729146137,280.8883014,8.98,'11111222,11111222,11111222' 
TABS,ioos:station:wmo:42047:1,2010-11-03T10:00:00Z,27.8966,-93.5973,4.0,7.452093666,277.4015577,9.27,'11111222,11111222,11111222' 
TABS,ioos:station:wmo:42047:1,2010-11-03T10:30:00Z,27.8966,-93.5973,4.0,8.1194889,277.5013635,10.22,'11111222,11111222,11111222' 
TABS,ioos:station:wmo:42047:1,2010-11-03T11:00:00Z,27.8966,-93.5973,4.0,6.740452507,275.4483783,8.24,'11111222,11111222,11111222' 
TABS,ioos:station:wmo:42047:1,2010-11-03T11:30:00Z,27.8966,-93.5973,4.0,7.845164116,280.6510351,10.15,'11111222,11111222,11111222' 
TABS,ioos:station:wmo:42047:1,2010-11-03T12:00:00Z,27.8966,-93.5973,4.0,7.954879006,282.7084615,9.55,'11111222,11111222,11111222' 
TABS,ioos:station:wmo:42047:1,2010-11-03T12:30:00Z,27.8966,-93.5973,4.0,7.694699474,282.916451,9.55,'11111222,11111222,11111222' 
TABS,ioos:station:wmo:42047:1,2010-11-03T13:00:00Z,27.8966,-93.5973,4.0,8.453975396,282.9183887,10.26,'11111222,11111222,11111222' 
TABS,ioos:station:wmo:42047:1,2010-11-03T13:30:00Z,27.8966,-93.5973,4.0,6.636655784,289.9093013,8.66,'11111222,11111222,11111222' 
TABS,ioos:station:wmo:42047:1,2010-11-03T14:00:00Z,27.8966,-93.5973,4.0,7.134479659,277.0851557,9.15,'11111222,11111222,11111222' 
TABS,ioos:station:wmo:42047:1,2010-11-03T14:30:00Z,27.8966,-93.5973,4.0,6.321091678,293.1985363,7.84,'11111222,11111222,11111222' 
TABS,ioos:station:wmo:42047:1,2010-11-03T15:00:00Z,27.8966,-93.5973,4.0,6.318013928,290.1845041,7.99,'11111222,11111222,11111222' 
TABS,ioos:station:wmo:42047:1,2010-11-03T15:30:00Z,27.8966,-93.5973,4.0,9.026366932,290.2216773,10.82,'11111222,11111222,11111222' 
TABS,ioos:station:wmo:42047:1,2010-11-03T16:00:00Z,27.8966,-93.5973,4.0,7.19847206,292.7177742,8.98,'11111222,11111222,11111222' 
TABS,ioos:station:wmo:42047:1,2010-11-03T16:30:00Z,27.8966,-93.5973,4.0,8.526271166,300.0532084,10.05,'11111222,11111222,11111222' 
TABS,ioos:station:wmo:42047:1,2010-11-03T17:00:00Z,27.8966,-93.5973,4.0,7.300027397,313.445743,8.69,'11111222,11111222,11111222' 
TABS,ioos:station:wmo:42047:1,2010-11-03T17:30:00Z,27.8966,-93.5973,4.0,8.673136687,325.7601313,10.42,'11111222,11111222,11111222' 
TABS,ioos:station:wmo:42047:1,2010-11-03T18:00:00Z,27.8966,-93.5973,4.0,8.042990737,332.1285077,9.77,'11111222,11111222,11111222' 
TABS,ioos:station:wmo:42047:1,2010-11-03T18:30:00Z,27.8966,-93.5973,4.0,7.394119285,322.8045262,11.55,'11111222,11111222,11111222' 
TABS,ioos:station:wmo:42047:1,2010-11-03T19:00:00Z,27.8966,-93.5973,4.0,9.275154985,310.1455779,10.76,'11111222,11111222,11111222' 
TABS,ioos:station:wmo:42047:1,2010-11-03T19:30:00Z,27.8966,-93.5973,4.0,8.665263989,324.1086174,10.45,'11111222,11111222,11111222' 
TABS,ioos:station:wmo:42047:1,2010-11-03T20:00:00Z,27.8966,-93.5973,4.0,7.394707567,337.6660659,9.08,'11111222,11111222,11111222' 
TABS,ioos:station:wmo:42047:1,2010-11-03T20:30:00Z,27.8966,-93.5973,4.0,8.139778867,332.8052033,10.87,'11111222,11111222,11111222' 
TABS,ioos:station:wmo:42047:1,2010-11-03T21:00:00Z,27.8966,-93.5973,4.0,10.45156926,333.0915701,12.0,'11111222,11111222,11111222' 
TABS,ioos:station:wmo:42047:1,2010-11-03T21:30:00Z,27.8966,-93.5973,4.0,10.23115341,345.1621985,11.31,'11111222,11111222,11111222' 
TABS,ioos:station:wmo:42047:1,2010-11-03T22:00:00Z,27.8966,-93.5973,4.0,9.752497116,341.7135103,12.24,'11111222,11111222,11111222' 
TABS,ioos:station:wmo:42047:1,2010-11-03T22:30:00Z,27.8966,-93.5973,4.0,10.64778381,342.0583595,12.23,'11111222,11111222,11111222' 
TABS,ioos:station:wmo:42047:1,2010-11-03T23:00:00Z,27.8966,-93.5973,4.0,10.29175398,358.9419727,11.77,'11111222,11111222,11111222' 
TABS,ioos:station:wmo:42047:1,2010-11-03T23:30:00Z,27.8966,-93.5973,4.0,10.14049308,0.564817038,11.83,'11111222,11111222,11111222' 
TABS,ioos:station:wmo:42047:1,2010-11-04T00:00:00Z,27.8966,-93.5973,4.0,11.80360115,339.415386,13.27,'11111222,11111222,11111222' 
TABS,ioos:station:wmo:42047:1,2010-11-04T00:30:00Z,27.8966,-93.5973,4.0,12.20485559,342.5001793,13.87,'11111222,11111222,11111222' 
TABS,ioos:station:wmo:42047:1,2010-11-04T01:00:00Z,27.8966,-93.5973,4.0,11.55060172,354.6347169,13.17,'11111222,11111222,11111222' 
TABS,ioos:station:wmo:42047:1,2010-11-04T01:30:00Z,27.8966,-93.5973,4.0,11.3049812,346.4429777,13.11,'11111222,11111222,11111222' 
TABS,ioos:station:wmo:42047:1,2010-11-04T02:00:00Z,27.8966,-93.5973,4.0,9.779043921,353.187282,11.93,'11111222,11111222,11111222' 
TABS,ioos:station:wmo:42047:1,2010-11-04T02:30:00Z,27.8966,-93.5973,4.0,9.44132406,352.0241878,11.15,'11111222,11111222,11111222' 
TABS,ioos:station:wmo:42047:1,2010-11-04T03:00:00Z,27.8966,-93.5973,4.0,10.93373221,356.2240671,12.48,'11111222,11111222,11111222' 
TABS,ioos:station:wmo:42047:1,2010-11-04T03:30:00Z,27.8966,-93.5973,4.0,12.149144,340.3269774,15.49,'11111222,11111222,11111222' 
TABS,ioos:station:wmo:42047:1,2010-11-04T04:00:00Z,27.8966,-93.5973,4.0,13.77363423,346.0947362,15.6,'11111222,11111222,11111222' 
TABS,ioos:station:wmo:42047:1,2010-11-04T04:30:00Z,27.8966,-93.5973,4.0,13.65968155,343.5416417,15.64,'11111222,11111222,11111222' 
TABS,ioos:station:wmo:42047:1,2010-11-04T05:00:00Z,27.8966,-93.5973,4.0,13.84878695,340.8191274,16.36,'11111222,11111222,11111222' 
TABS,ioos:station:wmo:42047:1,2010-11-04T05:30:00Z,27.8966,-93.5973,4.0,14.53938788,335.4971874,16.29,'11111222,11111222,11111222' 
TABS,ioos:station:wmo:42047:1,2010-11-04T06:00:00Z,27.8966,-93.5973,4.0,13.96060887,336.5749173,15.74,'11111222,11111222,11111222' 
TABS,ioos:station:wmo:42047:1,2010-11-04T06:30:00Z,27.8966,-93.5973,4.0,13.53547192,338.4578279,15.15,'11111222,11111222,11111222' 
TABS,ioos:station:wmo:42047:1,2010-11-04T07:00:00Z,27.8966,-93.5973,4.0,11.65154925,330.9930157,14.73,'11111222,11111222,11111222' 
TABS,ioos:station:wmo:42047:1,2010-11-04T07:30:00Z,27.8966,-93.5973,4.0,16.30446871,351.8547971,18.9,'11111222,11111222,11111222' 
TABS,ioos:station:wmo:42047:1,2010-11-04T08:00:00Z,27.8966,-93.5973,4.0,15.2449631,355.598212,16.8,'11111222,11111222,11111222' 
TABS,ioos:station:wmo:42047:1,2010-11-04T08:30:00Z,27.8966,-93.5973,4.0,14.39292187,358.8452733,16.82,'11111222,11111222,11111222' 
TABS,ioos:station:wmo:42047:1,2010-11-04T09:00:00Z,27.8966,-93.5973,4.0,14.20316866,1.21008088,16.36,'11111222,11111222,11111222' 
TABS,ioos:station:wmo:42047:1,2010-11-04T09:30:00Z,27.8966,-93.5973,4.0,15.77879907,2.796908385,17.67,'11111222,11111222,11111222' 
TABS,ioos:station:wmo:42047:1,2010-11-04T10:00:00Z,27.8966,-93.5973,4.0,14.71815885,1.907640612,16.42,'11111222,11111222,11111222' 
TABS,ioos:station:wmo:42047:1,2010-11-04T10:30:00Z,27.8966,-93.5973,4.0,14.90484485,1.460704088,17.58,'11111222,11111222,11111222' 
TABS,ioos:station:wmo:42047:1,2010-11-04T11:00:00Z,27.8966,-93.5973,4.0,15.86456744,16.89271228,18.15,'11111222,11111222,11111222' 
TABS,ioos:station:wmo:42047:1,2010-11-04T11:30:00Z,27.8966,-93.5973,4.0,17.24840282,17.72037512,19.76,'11111222,11111222,11111222' 
TABS,ioos:station:wmo:42047:1,2010-11-04T12:00:00Z,27.8966,-93.5973,4.0,15.8818135,13.54600661,18.22,'11111222,11111222,11111222' 
TABS,ioos:station:wmo:42047:1,2010-11-04T12:30:00Z,27.8966,-93.5973,4.0,16.55157092,10.58326998,19.81,'11111222,11111222,11111222' 
TABS,ioos:station:wmo:42047:1,2010-11-04T13:00:00Z,27.8966,-93.5973,4.0,16.55508683,16.78186849,18.86,'11111222,11111222,11111222' 
TABS,ioos:station:wmo:42047:1,2010-11-04T13:30:00Z,27.8966,-93.5973,4.0,16.21446885,24.36765174,18.36,'11111222,11111222,11111222' 
TABS,ioos:station:wmo:42047:1,2010-11-04T14:00:00Z,27.8966,-93.5973,4.0,16.18933291,20.84159979,18.85,'11111222,11111222,11111222' 
TABS,ioos:station:wmo:42047:1,2010-11-04T14:30:00Z,27.8966,-93.5973,4.0,15.68744721,13.71710378,18.01,'11111222,11111222,11111222' 
TABS,ioos:station:wmo:42047:1,2010-11-04T15:00:00Z,27.8966,-93.5973,4.0,15.55802687,16.8506728,17.2,'11111222,11111222,11111222' 
TABS,ioos:station:wmo:42047:1,2010-11-04T15:30:00Z,27.8966,-93.5973,4.0,15.8757677,19.11947116,19.15,'11111222,11111222,11111222' 
TABS,ioos:station:wmo:42047:1,2010-11-04T16:00:00Z,27.8966,-93.5973,4.0,14.13626896,19.80624661,16.48,'11111222,11111222,11111222' 
TABS,ioos:station:wmo:42047:1,2010-11-04T16:30:00Z,27.8966,-93.5973,4.0,14.62248269,25.39063639,16.59,'11111222,11111222,11111222' 
TABS,ioos:station:wmo:42047:1,2010-11-04T17:00:00Z,27.8966,-93.5973,4.0,13.96094911,21.38199345,16.62,'11111222,11111222,11111222' 
TABS,ioos:station:wmo:42047:1,2010-11-04T17:30:00Z,27.8966,-93.5973,4.0,13.72782576,8.968055581,16.26,'11111222,11111222,11111222' 
TABS,ioos:station:wmo:42047:1,2010-11-04T18:00:00Z,27.8966,-93.5973,4.0,12.99806524,23.05362552,15.43,'11111222,11111222,11111222' 
TABS,ioos:station:wmo:42047:1,2010-11-04T18:30:00Z,27.8966,-93.5973,4.0,12.62936657,9.11154787,14.42,'11111222,11111222,11111222' 